Weather History for KBPT - January, 2013

Change the Weather History Date:

Monday, January 7, 2013

  Actual Average Record
Temperature  
Mean Temperature 47 °F 52 °F  
Max Temperature 57 °F 62 °F 79 °F (1906)
Min Temperature 37 °F 43 °F 17 °F (1918)
Degree Days  
Heating Degree Days 18 13  
Month to date heating degree days 117 91  
Since 1 July heating degree days 563 641  
Cooling Degree Days 0 0  
Month to date cooling degree days 0 0  
Year to date cooling degree days 0 0  
Moisture  
Dew Point 40 °F    
Average Humidity 72    
Maximum Humidity 93    
Minimum Humidity 51    
Precipitation  
Precipitation 0.00 in 0.18 in 4.10 in (1961)
Month to date precipitation 3.07 1.25  
Year to date precipitation 3.07 1.25  
Snow  
Snow 0.00 in 0.00 in 0.00 in ()
Month to date snowfall 0.0 0.0  
Since 1 July snowfall 0.0 T  
Snow Depth 0.00 in    
Sea Level Pressure  
Sea Level Pressure 30.22 in    
Wind  
Wind Speed 8 mph (ENE)    
Max Wind Speed 15 mph    
Max Gust Speed 20 mph    
Visibility 10 miles    
Events      
T = Trace of Precipitation, MM = Missing Value Source: NWS Daily Summary

Daily Weather History Graph

Daily Weather History Graph

Search for Another Location

Airport or City:

Trip Planner

Search our weather history database for the weather conditions in past years. The results will help you decide how hot, cold, wet, or windy it might be!

Date:

Astronomy

Jan. 07, 2013 Rise Set
Actual Time 7:12 AM CST 5:32 PM CST
Civil Twilight 6:46 AM CST 5:58 PM CST
Nautical Twilight 6:17 AM CST 6:28 PM CST
Astronomical Twilight 5:48 AM CST 6:57 PM CST
Moon 2:42 AM CST (1/7) 1:40 PM CST (1/7)
Length of Visible Light 11h 11m
Length of Day
10h 19m
Waning Crescent, 22% of the Moon is Illuminated
Jan 7
Waning Crescent
Jan 11
New
Jan 18
First Quarter
Jan 26
Full
Feb 3
Last Quarter

Hourly Weather History & Observations

Time (CST) Temp. Windchill Dew Point Humidity Pressure Visibility Wind Dir Wind Speed Gust Speed Precip Events Conditions
12:53 AM 41.0 °F 38.0 °F 39.0 °F 93% 30.31 in 10.0 mi NNE 4.6 mph - N/A   Clear
1:53 AM 42.1 °F 37.1 °F 39.0 °F 89% 30.29 in 10.0 mi NNE 8.1 mph - N/A   Clear
2:53 AM 41.0 °F 37.1 °F 37.9 °F 89% 30.29 in 10.0 mi NNE 5.8 mph - N/A   Clear
3:53 AM 41.0 °F 37.1 °F 37.9 °F 89% 30.28 in 10.0 mi NE 5.8 mph - N/A   Clear
4:53 AM 39.9 °F 35.8 °F 37.9 °F 93% 30.27 in 10.0 mi NE 5.8 mph - N/A   Clear
5:53 AM 39.9 °F 35.8 °F 37.9 °F 93% 30.28 in 9.0 mi NE 5.8 mph - N/A   Clear
6:53 AM 39.9 °F 36.7 °F 37.9 °F 93% 30.29 in 7.0 mi NNE 4.6 mph - N/A   Overcast
7:53 AM 41.0 °F 37.1 °F 37.9 °F 89% 30.30 in 7.0 mi NNE 5.8 mph - N/A   Clear
8:53 AM 44.1 °F 38.1 °F 39.0 °F 82% 30.31 in 9.0 mi ENE 11.5 mph - N/A   Mostly Cloudy
9:53 AM 48.9 °F - 41.0 °F 74% 30.32 in 10.0 mi ENE 12.7 mph - N/A   Partly Cloudy
10:53 AM 51.1 °F - 39.9 °F 66% 30.30 in 10.0 mi ENE 12.7 mph - N/A   Clear
11:53 AM 53.1 °F - 39.0 °F 59% 30.27 in 10.0 mi ENE 11.5 mph - N/A   Partly Cloudy
12:53 PM 55.4 °F - 39.2 °F 54% 30.24 in 10.0 mi ESE 9.2 mph - N/A   Mostly Cloudy
1:53 PM 55.9 °F - 39.9 °F 55% 30.20 in 10.0 mi ENE 9.2 mph - N/A   Overcast
2:53 PM 57.0 °F - 39.9 °F 53% 30.18 in 10.0 mi East 10.4 mph - N/A   Overcast
3:53 PM 55.9 °F - 41.0 °F 57% 30.20 in 10.0 mi ESE 8.1 mph - N/A   Overcast
4:53 PM 55.4 °F - 41.0 °F 58% 30.18 in 10.0 mi East 8.1 mph - N/A   Scattered Clouds
5:53 PM 51.1 °F - 42.1 °F 71% 30.17 in 10.0 mi East 6.9 mph - N/A   Mostly Cloudy
6:53 PM 48.0 °F - 42.1 °F 80% 30.18 in 10.0 mi South 4.6 mph - N/A   Partly Cloudy
7:53 PM 52.0 °F - 43.0 °F 71% 30.16 in 10.0 mi East 10.4 mph - N/A   Scattered Clouds
8:53 PM 51.1 °F - 43.0 °F 74% 30.15 in 10.0 mi East 10.4 mph - N/A   Scattered Clouds
9:36 PM 51.8 °F - 42.8 °F 71% 30.14 in 10.0 mi East 12.7 mph - N/A   Mostly Cloudy
9:53 PM 53.1 °F - 42.1 °F 66% 30.14 in 10.0 mi ENE 9.2 mph - N/A   Overcast
10:53 PM 53.1 °F - 43.0 °F 69% 30.14 in 10.0 mi East 9.2 mph - N/A   Overcast
11:53 PM 53.1 °F - 42.1 °F 66% 30.10 in 10.0 mi East 12.7 mph - N/A   Mostly Cloudy